User: anonymous   Login
Location: Bailleul
(50.3375°N, 2.8513°E)
Time: 04:33:09
(UTC+00:00)
Language:

SL-16 R/B - Orbit

View from above orbital plane
View from above orbital plane
View from above satellite
View from above satellite

Ground track
Ground track

The orbit data is extracted from the following two-line orbital elements,

1 31793U 07029B   21263.38184264  .00000138  00000-0  97105-4 0  9999
2 31793  70.9793   0.2084 0002608 277.3955 144.1352 14.14452574734762
Epoch (UTC): 20 September 2021 09:09:51
Eccentricity: 0.0002608
inclination: 70.9793°
perigee height: 842 km
apogee height: 846 km
right ascension of ascending node: 0.2084°
argument of perigee: 277.3955°
revolutions per day: 14.14452574
mean anomaly at epoch: 144.1352°
orbit number at epoch: 73476

The dashed part of the orbit path shows where the satellite is in the earth's shadow,  

DLR